Tracking 22081 objects as of 4-Dec-2020
HD Live streaming from Space Station
objects crossing your sky now

XSAT

Track XSAT now!
10-day predictions
XSAT is classified as:


NORAD ID: 37389
Int'l Code: 2011-015C
Perigee: 807.1 km
Apogee: 828.3 km
Inclination: 98.4 °
Period: 101.1 minutes
Semi major axis: 7188 km
RCS: 0.4978 m2 (medium)
Launch date: April 20, 2011
Source: Singapore (SING)
Launch site: SRIHARIKOTA (SRI)

X-SAT, Singapore's first national satellite, has a multi-spectral camera and will demonstrate space-based remote sensing and image processing technologies.
aabbcc
Your satellite tracking list
Your tracking list is empty




NASA's NSSDC Master Catalog

Two Line Element Set (TLE):
1 37389U 11015C   20338.95048581 -.00000017  00000-0  10729-4 0  9996
2 37389  98.4135  27.3695 0014721 150.3762 209.8253 14.24386030500413
Source of the keplerian elements: AFSPC